User: anonymous   Login
Location: Unspecified
(0.0000°N, 0.0000°E)
Time: 23:05:21
(UTC+00:00)
Language:

STARLINK-34515 - Orbit

View from above orbital plane
View from above orbital plane
View from above satellite
View from above satellite

Ground track
Ground track

The orbit is defined by the following mean orbital elements,

1 64712U          26145.32558209 +.00000000 +00000-0 +27928-3 0 00006
2 64712  70.0001 121.0614 0003416 268.6406  91.4362 14.98336611    08
Epoch (UTC): 25 May 2026 07:48:50
Eccentricity: 0.0003416
inclination: 70.0001°
perigee height: 570 km
apogee height: 574 km
right ascension of ascending node: 121.0614°
argument of perigee: 268.6406°
revolutions per day: 14.98336611
mean anomaly at epoch: 91.4362°

The dashed part of the orbit path shows where the satellite is in the earth's shadow,  

DLR